Wind_Speed
17 18 17 16 17 17 18 18 18 17 18 18 18 18 18 18 19 18 18 19 20 20 20 20 20 20 22 22 23 23 23 23 24 23 23 23 22 22 23 23 23 23 22
18 17 18 17 17 18 18 18 18 18 18 18 19 19 19 19 20 20 19 20 21 21 21 21 21 20 21 22 23 23 24 24 25 24 24 23 23 22 23 23 23 23 22
19 18 17 17 17 18 18 18 18 18 18 18 19 20 20 21 21 21 21 21 22 22 22 22 22 22 23 23 24 24 24 25 26 26 25 25 24 24 23 23 24 24 23
19 19 18 18 17 18 18 18 18 18 18 19 19 19 20 21 21 21 21 22 23 23 23 24 24 24 24 24 25 25 25 25 26 26 26 26 25 25 25 24 24 25 25
18 18 18 17 17 17 17 18 18 18 18 19 19 19 19 20 20 20 21 21 22 23 24 24 24 24 24 25 25 27 27 26 27 27 27 27 27 27 26 26 25 26 26
18 18 18 17 17 17 17 17 17 18 18 19 19 19 19 19 20 20 20 21 21 22 23 23 24 24 24 24 25 27 28 28 28 28 28 28 28 28 28 27 26 26 26
17 17 18 18 17 17 17 17 17 17 17 17 18 18 18 18 19 20 20 20 21 21 22 23 23 24 24 24 25 26 28 29 29 29 29 29 29 29 29 28 27 26 26
18 17 16 16 16 17 17 17 17 17 17 17 17 17 18 19 20 20 21 21 21 21 22 23 23 23 24 25 25 25 27 28 29 29 30 30 29 29 29 29 28 27 27
17 16 15 15 15 15 16 16 17 17 17 17 18 18 18 18 19 20 21 21 21 22 21 21 22 23 24 25 25 26 27 28 29 28 29 29 29 30 31 30 30 29 29
15 15 15 14 14 15 15 16 16 16 16 17 18 19 19 19 19 19 20 21 21 21 21 21 22 23 24 25 26 26 27 27 29 28 29 30 30 31 31 31 31 31 30
15 15 14 14 14 14 15 16 16 17 17 18 18 18 19 19 19 19 19 20 20 20 21 22 22 23 25 25 25 25 25 26 28 29 29 30 31 32 32 32 32 33 32
14 14 14 14 15 15 15 16 16 17 18 18 18 18 18 18 18 18 19 19 20 20 20 21 22 23 23 24 24 24 24 26 27 29 30 30 31 32 33 33 33 34 34
13 14 14 15 16 16 16 16 16 17 17 17 18 18 18 17 18 18 18 19 19 19 20 20 21 21 22 22 23 24 25 27 27 28 29 30 30 31 32 33 34 35 35
13 14 14 15 16 15 15 14 15 16 16 16 16 17 17 17 18 18 18 19 19 19 19 20 21 21 22 23 24 25 26 27 27 28 28 29 30 31 31 33 34 35 35
13 13 14 15 15 15 15 15 15 16 16 16 16 17 17 17 18 18 18 19 19 19 19 20 21 22 23 23 23 25 26 26 27 28 28 29 30 30 32 33 34 34 35
13 13 13 14 14 14 14 15 15 15 15 15 16 16 16 17 17 18 18 19 19 20 20 21 22 22 23 24 24 25 25 26 27 28 29 30 30 31 31 31 32 34 35
13 13 13 14 14 14 14 14 15 14 15 15 16 17 17 17 17 18 18 19 20 20 20 21 22 22 23 24 24 25 25 26 26 27 27 28 29 30 31 31 32 33 33
13 14 14 15 15 15 14 13 13 13 15 16 16 16 17 17 18 19 18 19 19 20 20 21 22 22 22 23 24 24 24 25 25 26 26 27 28 30 31 32 32 32 33
14 14 15 15 14 14 14 13 13 13 14 15 15 16 16 17 17 18 18 18 19 19 20 21 21 21 22 22 23 23 23 24 25 26 27 27 28 30 31 32 33 33 34
14 15 15 14 13 14 14 14 14 14 14 14 15 16 17 17 17 18 18 19 19 20 20 21 21 21 21 21 22 23 24 24 25 26 27 28 28 30 30 32 33 34 35
14 14 13 13 13 14 15 15 16 16 15 15 15 16 16 17 17 17 18 19 19 20 20 20 20 21 21 21 22 23 24 25 25 25 25 26 27 28 30 31 32 33 35
14 14 14 14 14 14 15 15 16 16 16 16 16 16 16 16 16 17 17 18 19 20 20 20 21 21 21 21 21 21 23 23 24 25 25 25 26 26 27 29 30 32 33
14 13 13 14 15 15 15 15 15 16 16 17 17 16 16 16 17 18 18 19 19 20 21 21 22 21 21 21 21 21 22 23 24 25 26 25 26 26 27 28 29 31 32
14 14 14 15 15 16 16 16 16 16 16 16 16 16 16 17 18 18 19 19 20 20 21 21 22 21 21 21 21 22 22 23 23 24 25 25 26 26 26 27 28 29 30
14 14 15 15 16 16 16 16 16 16 16 16 17 16 17 17 18 18 18 19 20 21 21 21 22 21 21 22 22 22 22 22 22 23 24 24 24 25 25 25 26 28 29
15 15 16 16 17 17 17 18 17 17 17 17 17 17 17 18 18 18 19 19 20 21 21 21 21 21 21 21 22 22 22 23 23 22 23 23 24 24 24 24 25 26 27
Wind_Direction
286 281 278 274 272 272 270 268 265 263 264 261 256 253 252 252 254 255 255 255 254 255 257 259 256 256 253 253 253 252 251 251 250 251 252 251 251 251 250 250 250 251 251
290 283 280 275 271 271 269 265 263 260 261 259 255 253 252 254 255 255 255 255 256 256 257 258 257 257 255 252 252 253 253 252 251 251 252 252 252 252 252 250 249 250 251
290 286 282 278 273 271 270 268 266 261 260 258 256 256 253 254 258 258 256 256 256 257 257 258 258 258 257 254 253 253 253 253 252 251 251 252 252 252 251 249 250 250 250
288 288 287 284 279 275 272 269 266 262 260 258 257 257 256 257 260 259 258 258 257 257 258 259 259 260 259 256 254 251 253 253 252 250 250 251 252 253 253 251 250 250 250
285 285 284 283 279 275 271 267 263 261 261 259 257 256 258 259 260 259 257 258 258 258 260 261 261 261 260 258 255 252 251 251 250 251 251 252 253 253 253 252 251 249 249
283 283 281 280 276 274 270 266 264 262 260 259 258 257 259 261 260 259 260 260 260 259 260 261 262 260 259 258 255 253 252 252 251 251 251 252 252 253 253 252 250 248 247
283 284 281 280 275 272 270 266 264 262 260 260 259 259 260 262 262 262 262 261 261 261 261 261 261 260 259 258 256 254 252 252 251 250 251 251 251 252 251 251 250 248 247
281 282 280 278 274 271 269 267 267 264 261 262 262 261 262 263 262 263 263 263 264 264 263 261 260 259 258 258 257 256 254 253 253 252 251 251 250 250 251 251 249 248 248
284 281 280 279 273 271 269 267 266 267 265 265 264 265 265 264 264 263 264 264 265 266 265 264 261 260 259 258 258 257 257 255 254 254 252 251 250 249 249 250 249 248 248
284 283 281 282 276 272 271 267 264 266 268 268 268 267 266 267 265 265 265 265 265 266 268 267 265 263 261 259 258 257 257 257 255 253 253 252 250 250 249 249 248 248 249
286 284 283 281 277 276 273 269 268 268 268 270 271 271 269 270 267 267 268 268 268 269 270 271 271 268 265 261 259 257 257 258 256 255 255 254 253 251 250 249 249 250 250
287 284 284 282 280 279 277 274 272 270 269 271 272 274 274 272 270 270 270 271 271 271 272 271 271 270 269 264 261 259 258 258 256 256 255 255 254 252 251 251 251 251 250
289 288 288 288 288 286 282 280 275 272 270 270 272 274 275 273 273 273 271 271 272 272 272 273 273 271 269 265 262 261 260 259 257 256 255 256 256 254 253 253 252 251 250
291 288 289 292 292 290 287 285 280 275 272 273 275 275 276 276 275 273 273 274 273 273 274 274 274 271 269 265 264 264 263 262 260 260 259 259 258 257 256 256 254 252 250
292 290 290 293 294 291 286 285 284 279 276 275 276 275 276 278 276 275 275 274 274 273 273 273 274 272 270 268 266 265 264 262 262 263 262 261 260 260 259 258 254 253 250
295 293 292 295 295 292 291 290 287 281 277 277 278 277 278 279 279 277 277 277 276 276 276 275 275 273 272 270 268 266 264 264 263 263 264 263 262 261 261 259 254 252 250
295 295 298 300 298 296 295 294 289 282 280 279 280 278 278 280 280 281 280 280 279 280 279 279 278 276 274 272 269 267 266 266 264 265 265 265 263 262 261 258 254 253 251
295 294 297 298 298 298 297 295 291 288 285 282 280 278 278 281 283 283 283 283 283 282 280 280 280 277 276 273 270 268 268 267 266 266 266 265 265 264 262 260 255 253 251
296 296 299 299 300 299 297 296 297 294 291 285 282 281 281 281 285 285 285 285 284 282 282 284 283 280 278 275 272 269 269 269 269 268 267 267 267 265 263 261 258 255 252
295 296 299 301 303 302 300 299 300 299 296 291 287 284 283 283 284 286 287 287 286 285 286 286 284 282 280 277 274 271 270 270 271 271 270 269 269 267 265 261 259 257 254
297 298 300 300 301 301 300 299 299 298 296 293 292 289 287 286 285 286 287 287 286 286 287 287 284 282 281 280 278 274 273 274 274 272 273 272 270 268 265 263 262 260 257
294 294 294 294 298 300 300 298 296 296 295 293 292 290 288 287 286 287 288 289 287 287 287 288 286 285 284 282 280 278 277 277 275 273 274 275 273 271 268 265 263 262 259
292 292 294 296 298 298 298 298 295 294 295 296 296 292 290 289 289 289 289 291 292 289 288 288 288 288 286 284 282 281 280 279 278 276 276 275 274 273 272 269 267 265 261
292 293 295 295 297 297 297 297 295 293 295 297 296 295 294 293 292 291 291 293 294 294 292 290 290 290 288 286 285 283 282 282 281 279 278 276 274 274 274 272 269 267 264
292 293 294 294 296 296 297 296 295 294 294 296 297 295 295 295 294 294 295 296 295 295 294 292 289 288 288 288 286 284 283 283 282 280 280 277 276 276 275 273 272 270 265
294 294 294 294 294 295 295 296 295 294 293 295 296 298 300 301 301 299 299 298 297 296 296 293 292 289 289 288 286 285 286 287 286 283 281 280 279 278 277 275 273 270 265
Height
5836 5835 5834 5833 5833 5832 5832 5832 5832 5832 5832 5832 5833 5834 5834 5835 5836 5836 5837 5838 5838 5839 5840 5841 5842 5842 5843 5844 5845 5847 5848 5850 5851 5852 5853 5855 5856 5857 5858 5860 5861 5863 5864
5832 5830 5829 5829 5828 5827 5827 5827 5827 5827 5828 5828 5829 5829 5830 5830 5831 5832 5832 5833 5833 5834 5835 5836 5836 5837 5838 5838 5840 5841 5843 5844 5846 5847 5848 5849 5851 5852 5853 5855 5856 5858 5859
5827 5826 5824 5823 5823 5822 5822 5822 5822 5822 5823 5823 5824 5824 5825 5825 5825 5826 5827 5828 5828 5829 5829 5830 5831 5832 5832 5833 5834 5835 5837 5838 5840 5841 5843 5844 5845 5846 5848 5849 5851 5852 5854
5822 5820 5819 5818 5817 5817 5816 5817 5817 5817 5818 5818 5819 5819 5819 5820 5820 5821 5821 5822 5822 5823 5823 5824 5825 5826 5826 5827 5828 5829 5831 5832 5834 5835 5837 5838 5839 5841 5842 5843 5845 5846 5848
5816 5815 5813 5812 5811 5811 5811 5811 5812 5812 5813 5813 5813 5814 5814 5814 5815 5815 5815 5816 5816 5817 5818 5818 5819 5819 5820 5820 5821 5822 5824 5826 5827 5829 5830 5832 5833 5834 5836 5837 5839 5840 5842
5811 5810 5808 5807 5806 5806 5806 5806 5806 5807 5807 5808 5808 5809 5809 5809 5809 5810 5810 5810 5811 5811 5812 5812 5812 5812 5813 5813 5814 5816 5817 5819 5820 5822 5823 5825 5826 5828 5829 5830 5832 5834 5835
5806 5805 5803 5802 5801 5801 5801 5801 5801 5802 5802 5803 5803 5803 5804 5804 5804 5804 5804 5805 5805 5805 5806 5806 5806 5806 5806 5807 5808 5809 5810 5812 5813 5815 5816 5818 5819 5821 5822 5824 5825 5827 5829
5802 5800 5799 5797 5797 5796 5796 5796 5797 5797 5797 5798 5798 5798 5799 5799 5799 5799 5799 5799 5799 5799 5800 5799 5799 5800 5800 5800 5801 5802 5803 5804 5806 5807 5809 5810 5812 5814 5815 5817 5819 5820 5822
5797 5795 5794 5793 5793 5792 5792 5792 5792 5792 5792 5793 5793 5793 5793 5794 5793 5794 5793 5793 5793 5793 5793 5793 5793 5793 5793 5794 5794 5795 5796 5797 5798 5800 5801 5802 5804 5806 5808 5809 5811 5813 5815
5793 5791 5790 5789 5789 5788 5788 5788 5788 5788 5788 5788 5788 5788 5788 5788 5788 5788 5788 5788 5787 5787 5787 5786 5786 5786 5786 5786 5787 5788 5789 5789 5791 5792 5793 5795 5796 5798 5800 5801 5803 5805 5807
5789 5788 5787 5786 5785 5784 5783 5783 5783 5783 5783 5783 5783 5782 5782 5782 5782 5782 5782 5782 5781 5780 5780 5779 5779 5779 5779 5779 5779 5780 5781 5782 5783 5784 5785 5787 5788 5790 5791 5793 5795 5797 5799
5785 5784 5783 5782 5781 5780 5779 5779 5778 5778 5778 5778 5777 5777 5776 5776 5776 5776 5776 5775 5775 5774 5773 5773 5773 5772 5772 5772 5772 5773 5774 5775 5775 5776 5777 5779 5780 5781 5783 5784 5786 5788 5790
5782 5780 5779 5778 5777 5776 5775 5774 5773 5773 5772 5772 5772 5771 5771 5771 5770 5770 5770 5769 5769 5768 5768 5767 5766 5766 5765 5765 5766 5766 5767 5767 5768 5768 5769 5770 5771 5772 5774 5775 5777 5779 5780
5778 5777 5776 5774 5773 5771 5770 5769 5769 5768 5767 5767 5767 5766 5766 5765 5765 5764 5764 5763 5763 5763 5762 5761 5760 5760 5759 5759 5759 5759 5760 5760 5760 5760 5761 5762 5762 5763 5765 5766 5767 5768 5770
5774 5773 5771 5770 5769 5767 5766 5765 5763 5763 5762 5762 5761 5761 5760 5760 5759 5759 5758 5757 5757 5756 5756 5755 5754 5753 5752 5752 5752 5752 5752 5752 5752 5753 5753 5753 5753 5754 5755 5756 5757 5758 5760
5770 5769 5767 5766 5765 5763 5762 5760 5759 5758 5757 5757 5756 5756 5755 5754 5754 5753 5752 5751 5750 5750 5749 5748 5747 5746 5745 5745 5744 5744 5744 5744 5744 5744 5744 5744 5745 5745 5745 5746 5747 5748 5750
5766 5765 5763 5762 5761 5759 5757 5756 5754 5753 5752 5752 5751 5751 5750 5749 5748 5747 5746 5745 5744 5743 5742 5741 5740 5739 5738 5737 5736 5736 5735 5735 5735 5735 5735 5735 5735 5735 5735 5736 5737 5739 5740
5762 5761 5759 5758 5756 5755 5753 5751 5750 5749 5748 5747 5746 5745 5745 5744 5743 5742 5741 5740 5738 5737 5736 5734 5733 5732 5730 5729 5728 5728 5727 5727 5727 5726 5726 5726 5726 5726 5726 5727 5727 5729 5731
5758 5757 5755 5754 5752 5751 5749 5747 5746 5745 5743 5742 5741 5740 5740 5739 5738 5736 5735 5734 5732 5731 5729 5728 5726 5724 5723 5722 5721 5720 5720 5719 5719 5718 5718 5718 5717 5717 5717 5717 5718 5719 5721
5754 5753 5752 5750 5748 5747 5745 5743 5742 5740 5739 5737 5736 5735 5734 5733 5732 5731 5729 5728 5726 5724 5723 5721 5719 5718 5716 5715 5714 5713 5712 5711 5711 5710 5709 5709 5708 5708 5708 5708 5708 5709 5710
5750 5749 5747 5746 5744 5743 5741 5739 5738 5736 5734 5733 5732 5730 5729 5727 5726 5725 5723 5721 5720 5718 5716 5714 5713 5711 5709 5707 5706 5705 5704 5704 5703 5702 5701 5700 5700 5699 5698 5698 5698 5698 5699
5746 5745 5744 5742 5741 5739 5737 5735 5733 5732 5730 5729 5727 5725 5724 5722 5720 5719 5717 5716 5714 5712 5710 5708 5706 5704 5702 5700 5699 5697 5697 5696 5695 5694 5693 5692 5691 5690 5689 5688 5688 5688 5688
5742 5741 5740 5738 5737 5735 5733 5731 5729 5727 5726 5724 5722 5720 5719 5717 5715 5714 5712 5710 5707 5705 5703 5701 5699 5697 5695 5693 5692 5690 5689 5688 5687 5686 5684 5684 5683 5681 5680 5679 5678 5677 5677
5739 5737 5736 5734 5733 5731 5729 5727 5725 5723 5721 5719 5717 5715 5713 5712 5710 5708 5706 5703 5701 5699 5696 5694 5693 5690 5688 5686 5684 5683 5681 5680 5679 5677 5676 5675 5674 5673 5671 5670 5668 5667 5667
5735 5734 5732 5731 5729 5727 5724 5722 5720 5719 5717 5715 5712 5710 5708 5706 5704 5702 5700 5697 5695 5692 5689 5687 5685 5683 5681 5679 5677 5675 5674 5672 5671 5669 5668 5667 5665 5664 5663 5661 5659 5658 5657
5731 5730 5728 5726 5724 5722 5720 5718 5716 5714 5712 5710 5707 5705 5703 5701 5698 5696 5694 5691 5689 5686 5683 5681 5678 5676 5674 5672 5670 5668 5666 5664 5663 5662 5660 5658 5657 5655 5654 5653 5651 5649 5648